Location: Sungai Buloh
(3.1000°N, 113.0000°E)
Time: 17:13:08
(UTC+00:00)

Cosmos 1943 - Pass Details

Date: 12 January 2026
Orbit: 830 x 850 km, 71.0° (Epoch: 11 February)

Event Time Altitude Azimuth Distance (km) Brightness Sun altitude
Exits shadow 21:32:50 22° 314° (NW) 1,781 4.3 -15.9°
Maximum altitude 21:36:06 43° 255° (WSW) 1,180 3.6 -15.2°
Drops below altitude 10° 21:41:26 10° 185° (S) 2,465 5.8 -13.9°
Sets 21:44:00 0° 178° (S) 3,399 6.7 -13.3°
